Regional Weather Roundup
Issued by NWS

Home | Current Version | Previous Version | Graphics & Text | Print | Product List | Glossary On
Versions: 1 2 3 4 5 6 7 8 9 10 11 12 13 14 15 16 17 18 19 20 21 22 23 24 25 26 27 28 29 30 31 32 33 34 35 36 37 38 39 40 41 42 43 44 45 46 47 48 49 50
000
ASUS43 KMPX 041301
RWRMN
WEATHER ROUNDUP FOR MINNESOTA
NATIONAL WEATHER SERVICE TWIN CITIES/CHANHASSEN MN
700 AM CST WED MAR 04 2015


NOTE: "FAIR" INDICATES FEW OR NO CLOUDS BELOW 12,000 FEET WITH NO
SIGNIFICANT WEATHER AND/OR OBSTRUCTIONS TO VISIBILITY. N/A MEANS
CURRENT SKY AND/OR WEATHER CONDITIONS ARE NOT AVAILABLE.

MNZ060>063-068>070-041400-
   Twin Cities Metro

CITY           SKY/WX    TMP DP  RH WIND       PRES   REMARKS
TWIN CITIES    PTCLDY    -1  -9  68 W8        30.16R WCI -15
ST PAUL        CLEAR      0  -8  69 W8        30.18R WCI -14
CRYSTAL        CLEAR     -2  -9  72 W7        30.15R WCI -15
BLAINE         FAIR       0  -8  71 W9        30.14R WCI -16
LAKEVILLE      CLEAR     -4  -9  77 W6        30.15S WCI -16
EDEN PRAIRIE   CLEAR     -3 -10  72 W7        30.15R WCI -16
SOUTH ST PAUL  CLEAR      0  -8  68 W3        30.16R
LAKE ELMO      FAIR      -4  -9  77 W5        30.15R WCI -15
$$
MNZ001>005-007-008-013>017-022>024-027-028-041400-
   Northwest Minnesota

CITY           SKY/WX    TMP DP  RH WIND       PRES   REMARKS
BEMIDJI        CLEAR    -10 -15  80 W9        30.03R WCI -28
HALLOCK        CLEAR    -11 -18  70 NW10      30.14R WCI -30
ROSEAU         CLEAR    -11 -18  70 W9        30.08R WCI -29
WARROAD        FAIR     -17 -22  76 W7        30.05R WCI -33
THIEF RVR FALL CLEAR    -11 -17  77 NW9       30.09R WCI -29
CROOKSTON      CLEAR     -9 -15  77 NW10      30.17R WCI -28
FOSSTON        PTCLDY   -11 -17  77 W8        30.09R WCI -28
DETROIT LAKES  CLEAR     -4  -9  77 NW15      30.09R WCI -25
MOORHEAD       CLEAR     -4  -9  77 NW12      30.17R WCI -22
PARK RAPIDS    FAIR      -9 -15  75 W9        30.03R WCI -26
MAHNOMEN       FAIR      -8 -14  74 W12       30.08R WCI -27
$$
MNZ006-009>011-018-025>026-041400-
   North Central Minnesota

CITY           SKY/WX    TMP DP  RH WIND       PRES   REMARKS
BAUDETTE       PTCLDY   -14 -20  74 W9        30.01R WCI -33
FLAG ISLAND    CLEAR    -15 -20  76 W7        30.02R WCI -31
INTL FALLS     CLEAR    -16 -21  78 W6        29.99R WCI -31
WASKISH        CLEAR    -11 -17  77 W9        30.03R WCI -29
BIG FORK       CLEAR    -13 -18  77 CALM      29.99R
LONGVILLE      CLEAR    -11 -15  84 W5        30.03R WCI -23
GRAND RAPIDS   CLOUDY    -8 -13  77 W8        29.98R WCI -23
CRANE LAKE     FAIR     -13 -17  84 CALM      30.00R
ORR            CLEAR    -15 -20  76 CALM      29.94R
COOK           LGT SNOW -17 -20  83 W3        29.97R
WALKER         FAIR      -9 -14  76 W7        30.02R WCI -23
$$
MNZ012-019>021-037-041400-
   Northeast Minnesota

CITY           SKY/WX    TMP DP  RH WIND       PRES   REMARKS
DULUTH         PTCLDY    -8 -14  74 W9        29.97R WCI -25
ELY            CLEAR    -11 -17  77 W7        29.93R WCI -26
HIBBING        PTCLDY   -11 -17  75 W6        29.98R WCI -25
EVELETH        FLURRIES  -8 -13  77 W3        29.98R
DULUTH HARBOR  CLEAR     -6 -11  77 CALM      30.09R
TWO HARBORS    CLEAR     -6 -13  71 W6        29.97R WCI -18
SILVER BAY     CLEAR     -6 -13  71 SW5       29.95R WCI -17
GRAND MARAIS     N/A     -4 -15  59 VRB7      29.97R WCI -18
G MARAIS ARPRT CLEAR    -11 -20  64 W12G22    29.79R WCI -31
$$
MNZ029>031-032-039>041-046>048-054>057-064-041400-
   West Central Minnesota

CITY           SKY/WX    TMP DP  RH WIND       PRES   REMARKS
FERGUS FALLS   FAIR      -6 -13  71 W9        30.18R WCI -22
WHEATON        CLEAR     -6 -11  77 W7        30.19S WCI -20
MORRIS         PTCLDY    -4 -11  71 W8        30.15R WCI -19
ALEXANDRIA     LGT SNOW  -6 -11  79 W9        30.11R WCI -23
ELBOW LAKE     CLOUDY    -3  -9  77 W9        30.14R WCI -19
WADENA         CLEAR     -9 -15  77 W8        30.07R WCI -26
GLENWOOD       CLEAR     -9 -15  77 W8        30.13R WCI -26
APPLETON       CLEAR     -8 -13  77 W3        30.18S
BENSON         MOCLDY    -2 -11  65 NW9       30.16R WCI -18
ORTONVILLE     CLOUDY     0  -9  65 NW7       30.17R WCI -13
MADISON        MOCLDY    -4  -9  77 W5        30.19R WCI -15
WILLMAR        MOCLDY    -2 -11  65 NW6       30.16R WCI -14
$$
MNZ033>034-036-042>043-049>051-058-059-041400-
   Central Minnesota

CITY           SKY/WX    TMP DP  RH WIND       PRES   REMARKS
ST CLOUD       CLEAR     -3 -10  72 NW13      30.13R WCI -22
SAUK CENTRE    FAIR      -9 -14  80 W8        30.13R WCI -26
PAYNESVILLE    CLEAR    -11 -15  83 SW7       30.14R WCI -27
AITKIN         CLEAR     -6 -11  77 W6        30.04R WCI -18
PINE RIVER     CLEAR     -9 -15  77 CALM      30.08R
BRAINERD       CLEAR    -11 -16  78 W7        30.07R WCI -26
STAPLES        CLEAR    -11 -15  84 W8        30.07R WCI -28
LITTLE FALLS   PTCLDY    -6 -11  77 W3        30.12R
LITCHFIELD     CLEAR     -4  -9  77 CALM      30.16R
BUFFALO        CLEAR     -7 -12  78 SW3       30.16R
MAPLE LAKE     CLEAR     -5  -9  82 SW5       30.15R WCI -16
$$
MNZ037-044-045-052-053-041400-
   East Central Minnesota

CITY           SKY/WX    TMP DP  RH WIND       PRES   REMARKS
PRINCETON      CLEAR     -4  -9  77 SW6       30.12R WCI -16
MORA           CLEAR     -8 -13  77 SW3       30.11R
RUSH CITY      PTCLDY    -6 -12  77 W5        30.12R WCI -17
MOOSE LAKE     CLEAR     -9 -15  77 CALM      30.04R
HINCKLEY       FAIR     -13 -15  92 SW6       30.08R WCI -27
CLOQUET        LGT SNOW  -9 -15  77 W7        30.00R WCI -24
MCGREGOR       CLEAR     -6 -11  77 W7        30.04R WCI -20
$$
MNZ071>073-080-081-089-090-097-098-041400-
   Southwest Minnesota

CITY           SKY/WX    TMP DP  RH WIND       PRES   REMARKS
MONTEVIDEO     PTCLDY    -4  -9  77 NW3       30.19R
GRANITE FALLS  CLEAR     -6 -12  76 CALM      30.20R
CANBY          FAIR      -2  -9  70 W6        30.18R WCI -14
MARSHALL       CLEAR     -2 -11  65 W9        30.17S WCI -18
REDWOOD FALLS  CLEAR     -3 -10  72 W8        30.18R WCI -18
OLIVIA         CLEAR     -6 -13  71 W7        30.17R WCI -20
PIPESTONE      CLEAR     -8 -11  84 SW5       30.12S WCI -19
WINDOM         CLEAR     -6 -11  77 W5        30.16R WCI -17
WORTHINGTON    CLEAR      0  -8  71 W12       30.16R WCI -18
JACKSON        CLEAR      0  -8  71 W8        30.16R WCI -15
TRACY          CLEAR     -2 -10  70 W7        30.16S WCI -16
SLAYTON        PTCLDY    -2 -10  70 CALM      30.14S
$$
MNZ065>067-074>077-082>085-091>093-041400-
   South Central Minnesota

CITY           SKY/WX    TMP DP  RH WIND       PRES   REMARKS
MANKATO        CLEAR      0  -9  65 W8        30.16R WCI -15
NEW ULM        FAIR      -9 -15  77 W7        30.19R WCI -24
ST JAMES       CLEAR      0  -9  65 W5        30.20R WCI -10
FAIRMONT       PTCLDY     1  -8  66 W8        30.15S WCI -12
GLENCOE        CLEAR     -5  -9  82 W6        30.17R WCI -18
FARIBAULT      CLEAR     -2  -9  71 W6        30.15S WCI -14
OWATONNA       PTCLDY    -2  -9  71 W7        30.15R WCI -16
ALBERT LEA     PTCLDY     0  -8  71 NW5       30.14S WCI -10
$$
MNZ078>079-086>088-094>096-041400-
   Southeast Minnesota

CITY           SKY/WX    TMP DP  RH WIND       PRES   REMARKS
ROCHESTER      CLEAR     -1  -9  68 NW14      30.10R WCI -20
RED WING       CLEAR      0  -9  65 W6        30.15R WCI -12
STANTON        CLEAR     -1  -8  71 W5        30.15R WCI -11
DODGE CENTER   PTCLDY     0  -6  78 W10       30.11R WCI -17
WINONA         CLEAR      5  -4  66 NW9       30.17R WCI  -9
AUSTIN         PTCLDY     0  -8  71 NW9       30.13R WCI -16
PRESTON        CLEAR     -1  -7  74 NW14      30.11S WCI -20
$$
ABBREVIATIONS USED IN REMARKS
   TC - TEMPERATURES IN CELSIUS
  WCI - WIND CHILL INDEX
   HX - HEAT INDEX
  VSB - VISIBILITY
$$



USA.gov is the U.S. government's official web portal to all federal, state and local government web resources and services.